This is the latest recevied weather packets stored in our database for station/object HP1CDW-13. If no packets are shown the sender has not sent any weather packets the latest 10 day(s).
| Time | Temp. | Humidity | Pressure | Rain* | Wind** | Luminosity | Snow |
|---|---|---|---|---|---|---|---|
| 1777478690 | 33.89° C | 61% | 1013 hPa | 0 mm | - | - | - |
| 1777478090 | 32.78° C | 62% | 1013.1 hPa | 0 mm | - | - | - |
| 1777477490 | 33.33° C | 63% | 1013.1 hPa | 0 mm | - | - | - |
| 1777476890 | 32.78° C | 64% | 1012.9 hPa | 0 mm | - | - | - |
| 1777476290 | 33.33° C | 63% | 1013.5 hPa | 0 mm | - | - | - |
| 1777475690 | 32.78° C | 64% | 1013.4 hPa | 0 mm | - | - | - |
| 1777475090 | 32.22° C | 66% | 1013.4 hPa | 0 mm | - | - | - |
| 1777474490 | 32.22° C | 66% | 1013.6 hPa | 0 mm | - | - | - |
| 1777473890 | 31.67° C | 68% | 1013.5 hPa | 0 mm | - | - | - |
| 1777473290 | 31.67° C | 69% | 1013.6 hPa | 0 mm | - | - | - |
| 1777472690 | 31.67° C | 69% | 1013.7 hPa | 0 mm | - | - | - |
| 1777472090 | 31.11° C | 70% | 1013.5 hPa | 0 mm | - | - | - |
| 1777471490 | 31.11° C | 71% | 1013.5 hPa | 0 mm | - | - | - |
| 1777470890 | 31.11° C | 71% | 1013.6 hPa | 0 mm | - | - | - |
| 1777470290 | 30.56° C | 71% | 1013.6 hPa | 0 mm | - | - | - |
| 1777469690 | 30.56° C | 72% | 1013.5 hPa | 0 mm | - | - | - |
| 1777469090 | 30° C | 73% | 1013.8 hPa | 0 mm | - | - | - |
| 1777468490 | 30° C | 76% | 1013.4 hPa | 0 mm | - | - | - |
| 1777467890 | 29.44° C | 76% | 1013.4 hPa | 0 mm | - | - | - |
| 1777467290 | 29.44° C | 78% | 1013.3 hPa | 0 mm | - | - | - |
| 1777466690 | 28.89° C | 81% | 1013.4 hPa | 0 mm | - | - | - |
| 1777466090 | 28.33° C | 82% | 1013.2 hPa | 0 mm | - | - | - |
| 1777465490 | 27.78° C | 85% | 1013 hPa | 0 mm | - | - | - |
| 1777464890 | 27.22° C | 86% | 1012.8 hPa | 0 mm | - | - | - |
| 1777464290 | 26.67° C | 88% | 1012.7 hPa | 0 mm | - | - | - |
* Rain latest hour (hover to see other rain measurements)
** Current wind speed in m/s (hover to see current wind gust speed)